TIMED

Last updated on Mon Oct 20 2025 00:02:39 GMT+0000 (Coordinated Universal Time)

1 26998U 01055B 25292.29013413 .00003288 00000+0 30853-3 0 9990 2 26998 74.0715 359.7774 0002433 269.4663 90.6243 14.94422119294826
UTC large
Height (km)
Speed (km/s)
/
Latitude / Longitude
Inclination (degrees)
Orbital Period (minutes)
Azimuth
Elevation
Range (km)
Doppler Factor

Next 0 passes for location: London (51.5072 / 0.1276)

Sorry there are no passes over London.